Weather History for KVJI - December, 2012

Change the Weather History Date:

Monday, December 10, 2012

  Actual Average (KTRI) Record (KTRI)
Temperature  
Mean Temperature 50 °F 39 °F  
Max Temperature 57 °F 49 °F 76 °F (1971)
Min Temperature 42 °F 29 °F 6 °F (1937)
Degree Days  
Heating Degree Days 16 26  
Month to date heating degree days 250  
Since 1 July heating degree days 1136  
Cooling Degree Days 0 0  
Month to date cooling degree days 0  
Year to date cooling degree days 981  
Moisture  
Dew Point 53 °F    
Average Humidity 97    
Maximum Humidity 100    
Minimum Humidity 87    
Precipitation  
Precipitation 1.29 in 0.12 in 1.95 in (1972)
Month to date precipitation 1.15  
Year to date precipitation 38.79  
Snow  
Snow 0.00 in 0.00 in - ()
Month to date snowfall 0.5  
Since 1 July snowfall 0.8  
Snow Depth -    
Sea Level Pressure  
Sea Level Pressure 29.77 in    
Wind  
Wind Speed 3 mph (West)    
Max Wind Speed 17 mph    
Max Gust Speed 29 mph    
Visibility 8 miles    
Events Rain    
T = Trace of Precipitation, MM = Missing Value Source: NWS Daily Summary

Daily Weather History Graph

Daily Weather History Graph

Search for Another Location

Airport or City:

Trip Planner

Search our weather history database for the weather conditions in past years. The results will help you decide how hot, cold, wet, or windy it might be!

Date:

Astronomy

Dec. 10, 2012 Rise Set
Actual Time 7:30 AM EST 5:12 PM EST
Civil Twilight 7:01 AM EST 5:41 PM EST
Nautical Twilight 6:28 AM EST 6:13 PM EST
Astronomical Twilight 5:57 AM EST 6:44 PM EST
Moon 4:14 AM EST (12/10) 2:58 PM EST (12/10)
Length of Visible Light 10h 39m
Length of Day
9h 42m
Waning Crescent, 10% of the Moon is Illuminated
Dec 10
Waning Crescent
Dec 13
New
Dec 20
First Quarter
Dec 28
Full
Jan 4
Last Quarter

Hourly Weather History & Observations

Time (EST) Temp. Windchill Dew Point Humidity Pressure Visibility Wind Dir Wind Speed Gust Speed Precip Events Conditions
12:15 AM 52.2 °F - 51.8 °F 99% 29.92 in 10.0 mi Calm Calm - N/A   Scattered Clouds
12:35 AM 52.2 °F - 51.4 °F 97% 29.92 in 10.0 mi Calm Calm - N/A   Mostly Cloudy
12:55 AM 52.2 °F - 51.1 °F 96% 29.91 in 10.0 mi Calm Calm - N/A   Scattered Clouds
1:15 AM 51.8 °F - 51.1 °F 97% 29.91 in 10.0 mi Calm Calm - N/A   Mostly Cloudy
1:35 AM 52.2 °F - 51.4 °F 97% 29.89 in 10.0 mi Calm Calm - N/A   Mostly Cloudy
1:55 AM 50.9 °F - 50.5 °F 99% 29.88 in 10.0 mi East 3.5 mph - N/A   Scattered Clouds
2:15 AM 52.7 °F - 52.5 °F 99% 29.87 in 10.0 mi Calm Calm - N/A   Clear
2:35 AM 51.4 °F - 50.9 °F 98% 29.86 in 10.0 mi Calm Calm - N/A   Clear
2:55 AM 52.0 °F - 51.6 °F 99% 29.85 in 10.0 mi Calm Calm - N/A   Clear
3:15 AM 52.5 °F - 51.6 °F 97% 29.84 in 10.0 mi Calm Calm - N/A   Clear
3:35 AM 51.3 °F - 50.7 °F 98% 29.83 in 10.0 mi Calm Calm - N/A   Clear
3:55 AM 51.8 °F - 50.9 °F 97% 29.83 in 10.0 mi Calm Calm - N/A   Scattered Clouds
4:15 AM 52.0 °F - 51.3 °F 97% 29.82 in 10.0 mi Calm Calm - N/A   Mostly Cloudy
4:35 AM 52.2 °F - 51.3 °F 97% 29.82 in 10.0 mi Calm Calm - N/A   Overcast
4:55 AM 53.1 °F - 51.6 °F 95% 29.80 in 10.0 mi Calm Calm - N/A   Scattered Clouds
5:15 AM 53.1 °F - 51.6 °F 95% 29.79 in 10.0 mi East 5.8 mph - N/A   Scattered Clouds
5:35 AM 53.8 °F - 52.0 °F 94% 29.77 in 10.0 mi Calm Calm - N/A   Mostly Cloudy
5:55 AM 55.0 °F - 52.0 °F 89% 29.76 in 10.0 mi Calm Calm - N/A   Scattered Clouds
6:15 AM 54.0 °F - 52.0 °F 93% 29.77 in 10.0 mi Calm Calm - N/A   Mostly Cloudy
6:35 AM 54.7 °F - 52.5 °F 92% 29.76 in 10.0 mi Calm Calm - N/A   Mostly Cloudy
6:55 AM 55.8 °F - 52.7 °F 89% 29.76 in 3.0 mi Calm Calm - N/A   Overcast
7:15 AM 56.8 °F - 53.1 °F 87% 29.78 in 10.0 mi North 9.2 mph - N/A Rain Light Rain
7:35 AM 56.5 °F - 54.3 °F 92% 29.79 in 10.0 mi North 6.9 mph - 0.01 in Rain Rain
7:55 AM 56.3 °F - 55.4 °F 97% 29.78 in 10.0 mi North 4.6 mph - 0.06 in Rain Light Rain
8:15 AM 56.3 °F - 56.1 °F 99% 29.79 in 7.0 mi North 4.6 mph - 0.05 in Rain Rain
8:35 AM 55.9 °F - 55.9 °F 100% 29.81 in 3.0 mi NNW 5.8 mph 18.4 mph 0.18 in Rain Heavy Rain
8:55 AM 56.3 °F - 55.9 °F 99% 29.80 in 5.0 mi Calm Calm - 0.24 in Rain Light Rain
9:35 AM 55.6 °F - 55.6 °F 100% 29.82 in 4.0 mi West 3.5 mph - 0.12 in Rain Light Rain
9:55 AM 55.9 °F - 55.9 °F 100% 29.83 in 5.0 mi SW 4.6 mph - 0.15 in Rain Rain
10:15 AM 55.9 °F - 55.9 °F 100% 29.83 in 5.0 mi SW 6.9 mph - 0.02 in Rain Light Rain
10:35 AM 56.3 °F - 56.3 °F 100% 29.82 in 5.0 mi Calm Calm - 0.04 in Rain Rain
10:55 AM 56.5 °F - 56.5 °F 100% 29.81 in 10.0 mi SSW 4.6 mph - 0.04 in   Light Drizzle
11:15 AM 56.5 °F - 56.5 °F 100% 29.80 in 10.0 mi SW 5.8 mph - 0.01 in Rain Light Rain
11:35 AM 56.7 °F - 56.7 °F 100% 29.79 in 10.0 mi SW 6.9 mph - 0.02 in Rain Light Rain
12:15 PM 57.2 °F - 57.2 °F 100% 29.76 in 10.0 mi West 8.1 mph - N/A Rain Light Rain
12:35 PM 57.2 °F - 57.2 °F 100% 29.74 in 10.0 mi WSW 6.9 mph - N/A   Light Drizzle
12:55 PM 57.2 °F - 56.5 °F 97% 29.73 in 10.0 mi SW 8.1 mph - 0.01 in Rain Light Rain
1:15 PM 57.2 °F - 56.3 °F 97% 29.71 in 10.0 mi West 5.8 mph - N/A   Light Drizzle
1:35 PM 57.2 °F - 56.3 °F 97% 29.71 in 10.0 mi West 5.8 mph - N/A   Overcast
1:55 PM 57.0 °F - 56.3 °F 97% 29.71 in 10.0 mi West 5.8 mph - N/A   Overcast
2:15 PM 56.8 °F - 56.5 °F 99% 29.70 in 5.0 mi West 6.9 mph - N/A Rain Rain
2:35 PM 57.2 °F - 57.2 °F 100% 29.70 in 10.0 mi WSW 8.1 mph - 0.01 in   Light Drizzle
2:55 PM 57.2 °F - 57.2 °F 100% 29.71 in 7.0 mi West 9.2 mph - 0.02 in   Drizzle
3:15 PM 57.2 °F - 57.2 °F 100% 29.70 in 7.0 mi WSW 10.4 mph - 0.02 in Rain Rain
4:15 PM 56.7 °F - 56.7 °F 100% 29.70 in 7.0 mi WSW 11.5 mph 16.1 mph 0.01 in Rain Light Rain
4:35 PM 56.5 °F - 56.5 °F 100% 29.69 in 7.0 mi WSW 10.4 mph - 0.02 in Rain Rain
4:55 PM 56.3 °F - 56.3 °F 100% 29.69 in 3.0 mi WSW 10.4 mph - 0.03 in Rain Heavy Rain
5:15 PM 56.3 °F - 56.3 °F 100% 29.69 in 10.0 mi West 6.9 mph - 0.01 in   Overcast
5:35 PM 56.3 °F - 56.3 °F 100% 29.69 in 10.0 mi WSW 4.6 mph - 0.01 in   Overcast
5:55 PM 56.3 °F - 56.3 °F 100% 29.69 in 10.0 mi WSW 5.8 mph - 0.01 in   Overcast
6:15 PM 55.9 °F - 55.9 °F 100% 29.69 in 10.0 mi WSW 5.8 mph - N/A   Overcast
6:35 PM 55.9 °F - 55.9 °F 100% 29.68 in 5.0 mi West 4.6 mph - N/A Rain Rain
6:55 PM 55.9 °F - 55.9 °F 100% 29.69 in 5.0 mi West 4.6 mph - N/A   Drizzle
7:15 PM 55.8 °F - 55.8 °F 100% 29.68 in 7.0 mi West 4.6 mph - 0.01 in   Drizzle
7:35 PM 55.6 °F - 55.6 °F 100% 29.68 in 7.0 mi WNW 3.5 mph - 0.01 in Rain Rain
7:55 PM 55.8 °F - 55.8 °F 100% 29.68 in 3.0 mi WNW 5.8 mph - 0.15 in Rain Heavy Rain
8:15 PM 55.9 °F - 55.9 °F 100% 29.68 in 3.0 mi WNW 6.9 mph - 0.22 in Rain Heavy Rain
8:35 PM 56.3 °F - 56.3 °F 100% 29.68 in 3.0 mi NNW 5.8 mph - 0.39 in Rain Heavy Rain
8:55 PM 51.8 °F - 51.8 °F 100% 29.69 in 3.0 mi NNW 12.7 mph 19.6 mph 0.49 in Rain Light Rain
9:15 PM 50.2 °F - 49.8 °F 99% 29.71 in 5.0 mi North 10.4 mph - 0.03 in Rain Rain
9:35 PM 47.8 °F - 46.8 °F 96% 29.75 in 5.0 mi NNW 17.3 mph 28.8 mph 0.05 in Rain Rain
9:55 PM 45.5 °F 38.6 °F 43.5 °F 93% 29.74 in 10.0 mi North 16.1 mph 25.3 mph 0.05 in   Drizzle
10:15 PM 44.8 °F 39.0 °F 42.8 °F 93% 29.75 in 10.0 mi North 11.5 mph 24.2 mph N/A   Overcast
10:35 PM 44.6 °F 43.1 °F 43.2 °F 95% 29.79 in 10.0 mi SSW 3.5 mph - N/A   Overcast
10:55 PM 44.1 °F 40.8 °F 43.0 °F 96% 29.80 in 5.0 mi WNW 5.8 mph - N/A   Drizzle
11:15 PM 43.2 °F 40.5 °F 42.1 °F 96% 29.82 in 3.0 mi NW 4.6 mph - N/A   Overcast
11:35 PM 42.3 °F 37.3 °F 40.6 °F 94% 29.83 in 10.0 mi WNW 8.1 mph - N/A   Overcast
11:55 PM 42.1 °F 37.7 °F 40.1 °F 93% 29.84 in 10.0 mi NW 6.9 mph - N/A   Overcast